Regional Weather Roundup
Issued by NWS

Home | Current Version | Previous Version | Text Only | Print | Product List | Glossary On
Versions: 1 2 3 4 5 6 7 8 9 10 11 12 13 14 15 16 17 18 19 20 21 22 23 24 25 26 27 28 29 30 31 32 33 34 35 36 37 38 39 40 41 42 43 44 45 46 47 48 49 50
000
ASHW40 PHFO 280730
RWRHI

WEATHER ROUNDUP FOR HAWAII
NATIONAL WEATHER SERVICE HONOLULU HI
900 PM HST WED MAY 27 2015

THIS IS AN AUTOMATED REPORT THAT HAS NOT BEEN QUALITY CONTROLLED.

NOTE..."FAIR" INDICATES FEW OR NO CLOUDS BELOW 12,000 FEET WITH NO
SIGNIFICANT WEATHER AND/OR OBSTRUCTIONS TO VISIBILITY.

* - THESE SITES REPORT LIMITED FIELDS

HIZ001>004-280800-
KAUAI-NIIHAU-

CITY           SKY/WX    TMP DP  RH WIND       PRES   REMARKS
LIHUE APT      LGT RAIN N/A N/A N/A N7        30.01R
PORT ALLEN*    NOT AVBL
POIPU*           N/A     70 N/A N/A NE5         N/A
PRINCEVILLE*     N/A     68 N/A N/A MISG        N/A
KOKOLE POINT*  NOT AVBL
MOLOAA DAIRY*  NOT AVBL
WAIMEA HTS*    NOT AVBL
PUU OPAE*      NOT AVBL
PUU LUA*       NOT AVBL
MAKAHA RIDGE*    N/A     64  63  94 NE3G10      N/A
$$

HIZ005>011-280800-
OAHU-

CITY           SKY/WX    TMP DP  RH WIND       PRES   REMARKS
HONOLULU       PTCLDY    75  65  70 NE9       29.97R
KALAELOA       CLOUDY    74  63  68 CALM      29.98S
KANEOHE MCB    CLOUDY    71  67  87 VRB3      29.97R
WHEELER FIELD  CLOUDY    70  63  78 NW7       29.98S
BELLOWS*         N/A    N/A N/A N/A W8G14       N/A
KAHUKU*          N/A    N/A N/A N/A E1G8        N/A
WHEELER*       NOT AVBL
WAIANAE HARBOR NOT AVBL
DILLINGHAM*      N/A     73  63  68 MISG        N/A
KAHUKU TRN*      N/A     68  66  94 SE2G12      N/A
KAWAILOA*        N/A     66  63  88 NE8G16      N/A
KII*             N/A     73  66  78 E8          N/A
MAKUA RANGE*     N/A     73  63  68 E9G17       N/A
OAHU FOREST NW NOT AVBL
SCHOFIELD BRK*   N/A     70  63  78 VRB1        N/A
SCHOFIELD S*   NOT AVBL
WAIANAE VLY*   NOT AVBL
KUAOKALA*      NOT AVBL
HONOULIUULI*   NOT AVBL
MOKUOLOE IS*     N/A    N/A N/A N/A MISG        N/A
PALEHUA*       NOT AVBL
WAIAWA PHB*    NOT AVBL
$$

HIZ012>013-280800-
MOLOKAI-

CITY           SKY/WX    TMP DP  RH WIND       PRES   REMARKS
MOLOKAI AIRPT  CLOUDY    73  65  75 N7        29.98R
KALAUPAPA      NOT AVBL
MAKAPULAPAI*   NOT AVBL
MOLOKAI 1*     NOT AVBL
PUU ALII*        N/A     58  58 100 CALM        N/A
$$

HIZ016-280800-
KAHOOLAWE-

CITY           SKY/WX    TMP DP  RH WIND       PRES   REMARKS
KAHOOLAWE*     NOT AVBL
HAKIOAWA*        N/A     70  65  85 MISG        N/A
HONOKANAIA*      N/A     77  66  68 NE8G16    29.99R
KANELOA*         N/A     73  68  83 E9G18     30.02
KEALIALALO*      N/A     73  66  78 E7G17     29.98R
LUA MAKIKA*    NOT AVBL
$$

HIZ014>015-280800-
LANAI-

CITY           SKY/WX    TMP DP  RH WIND       PRES   REMARKS
LANAI CITY     CLOUDY    70  64  81 NE12      30.02R
LANAI 1*       NOT AVBL
$$

HIZ017>028-280800-
MAUI-

CITY           SKY/WX    TMP DP  RH WIND       PRES   REMARKS
KAHULUI        CLOUDY    75  65  70 NE6       29.98R
KAPALUA-W MAUI NOT AVBL
HANA AIRPORT   CLOUDY    70  68  94 CALM      30.02R FOG
HANA*            N/A     70 N/A N/A S2          N/A
HALEAKALA SUMM   N/A     41  41 100 SW8G26      N/A
MAALAEA BAY*   NOT AVBL
HALEAKALA*     NOT AVBL
KAUPO GAP*     NOT AVBL
KULA 1*          N/A     52  52 100 E3          N/A
$$

HIZ023>026-280800-
BIG ISLAND OF HAWAII COAST AND LOWER SLOPES-

CITY           SKY/WX    TMP DP  RH WIND       PRES   REMARKS
KAILUA KONA    CLOUDY    76  68  76 S5        29.94R
HILO           CLOUDY   N/A N/A N/A N6        29.97S
HONOKAA*       NOT AVBL
KAWAIHAE MWT*    N/A     81 N/A N/A S2          N/A
KAWAIHAE*        N/A     81 N/A N/A S3          N/A
SOUTH POINT*     N/A     70 N/A N/A NE5         N/A
UPOLU AIRPORT*   N/A    N/A N/A N/A NE12        N/A
KAMUELA*       CLOUDY    66  63  88 CALM      30.07R
HAKALAU*         N/A     55  55 100 CALM        N/A
KALOKO-HONOKO*   N/A     73  68  83 E1        29.94R
PALI 2*          N/A    N/A N/A N/A N3          N/A
KEALAKOMO*       N/A     82  77  83 N3          N/A  HX  91
KAUPULEHU*     NOT AVBL
KAPAPALA*        N/A     64  63  96 N5          N/A
LOWER KAHUKU*    N/A     61  61 100 N1          N/A
PUHE CS*         N/A     79  63  57 S1          N/A
PUHO CS*         N/A     72  67  85 E1          N/A
PTA KEAMUKU*     N/A     63  59  88 CALM        N/A
WAIKOLOA*      NOT AVBL
$$

HIZ027>028-280800-
BIG ISLAND OF HAWAII INTERIOR AND SUMMMITS-

CITY           SKY/WX    TMP DP  RH WIND       PRES   REMARKS
BRADSHAW FIELD MOCLDY    55  54  94 W3        30.27R
MK VISITOR CEN NOT AVBL
MAUNA KEA*       N/A     36  12  38 NW40        N/A  WCI  21
MAUNA LOA*       N/A     50  14  23 MISG        N/A
MAUNA LOA 1*   NOT AVBL
PTA KIPUKA*      N/A     57  57 100 E1          N/A
PTA RANGE 17*    N/A     55  55 100 E1          N/A
PTA WEST*        N/A     59  57  94 S3          N/A
NENE CABIN*      N/A     52 N/A N/A VRB3        N/A
AHUMOA*        NOT AVBL
PTA PORTABLE*  NOT AVBL
PUU MALI*        N/A     54  54 100 S3          N/A
$$

HIC003-280800-
NORTHWEST ISLANDS-

CITY           SKY/WX    TMP DP  RH WIND       PRES   REMARKS
MIDWAY ISLAND  PTCLDY   N/A N/A N/A N8        30.17R
MIDWAY NOS*    NOT AVBL
FRENCH FRIGATE NOT AVBL
$$

PHZ110>124-180-280800-
BUOY REPORTS

STATION/POSITION TIME  TEMP    WIND        PRES    WAVE   SWELL
                       AIR SEA DIR/SP/G            HT/PER HT/DIR
                 (UTC) (F)     (DEG/KT/KT) (MB)    (FT/S) (FT/D)
BUOY 51001       NOT AVBL
BUOY 51101       0700   72 74   30/ 12/ 16 1017.0R   4/12   3/350
BUOY 51100       NOT AVBL
BUOY 51002       0700   78 81   CALM  /  2 1014.3R   4/11   5/120
BUOY 51003       0700   74 79   80/  8/ 10 1014.9R   4/13   5
BUOY 51004       0629   78 79  110/ 10/ 12 1014.6R   5/12   5/190
BARBERS PT BUOY  NOT AVBL
WAIMEA BAY BUOY  0700      77                N/A     5/13
KAILUA BAY BUOY  0700      77                N/A     5/13   2/350
LANAI BUOY       NOT AVBL
BARBERS PT 2     0700      78                N/A     3/13   2/180
PAUWELA MAUI     0700      76                N/A     4/ 8   2/340
HILO             0700      77                N/A     5/ 8   2/ 40
KANEOHE BAY BUOY 0700      77                N/A     4/ 8   2/350
HANALEI KAUAI    0700      78                N/A     5/ 8   2/320
KAHULUI HARBOR   0700   76 79  360/  6/  9 1014.9R
HONOLULU HARBOR  0700   75 77   40/  4/  5 1015.0R
KILO NALU        NOT AVBL
HILO HARBOR      0700   73 77  360/  6/  7 1014.3R
MOKUOLOE         0700      79              1015.7R
NAWILIWILI       0700   69 78  350/  4/  6 1016.0R
WHOTS BUOY       NOT AVBL
BUOY 51028       NOT AVBL
$$

......................KEY........................................
  SKY/WX - SKY CONDITIONS/PRESENT WEATHER
  TMP    - TEMPERATURE IN FAHRENHEIT
  DWPT   - DEWPOINT IN FAHRENHEIT
  RH     - RELATIVE HUMIDITY IN PERCENT
  WIND   - DIRECTION AND SPEED /MPH FOR ISLANDS...KTS FOR BUOYS/
  PRES   - MEAN SEA LEVEL PRESSURE IN INCHES OF HG
  VSB    - VISIBILITY IN MILES
  HX     - HEAT INDEX
  WCI    - WIND CHILL INDEX
  VRB    - VARIABLE WIND DIRECTION
  N/A    - NOT AVAILABLE


USA.gov is the U.S. government's official web portal to all federal, state and local government web resources and services.